tDAR Logo tDAR digital antiquity

California Department of Forestry 1947 Aerial Photos: Flightline 10 (Humboldt County)

Creator(s): Califonia Department of Forestry

Year: 1947

» Downloads & Basic Metadata

Summary

A series of aerial photos taken from 1947 to 1948 by the California Department of Forestry in Humboldt County.


Cite this Record

California Department of Forestry 1947 Aerial Photos: Flightline 10 (Humboldt County). Califonia Department of Forestry. 1947. Humboldt State University, Cultural Resources Facility ( tDAR id: 370052) ; doi:10.6067/XCV8WW7G70





Keywords


Temporal Coverage

Calendar Date: 1947 to 1948


Spatial Coverage

min long: -124.662; min lat: 39.935 ; max long: -123.311; max lat: 42.115 ;

File Information

  Name Size Creation Date Date Uploaded Access
a47-hum-cdf2-10-001.jpg 5.66mb Oct 27, 2011 12:37:40 PM Public
a47-hum-cdf2-10-002.jpg 5.42mb Oct 27, 2011 12:38:13 PM Public
a47-hum-cdf2-10-003.jpg 4.85mb Oct 27, 2011 12:38:43 PM Public
a47-hum-cdf2-10-004.jpg 5.17mb Oct 27, 2011 12:39:15 PM Public
a47-hum-cdf2-10-005.jpg 4.98mb Oct 27, 2011 12:39:43 PM Public
a47-hum-cdf2-10-006.jpg 4.86mb Oct 27, 2011 12:40:13 PM Public
a47-hum-cdf2-10-007.jpg 4.64mb Oct 27, 2011 12:40:40 PM Public
a47-hum-cdf2-10-008.jpg 5.01mb Oct 27, 2011 12:41:03 PM Public
a47-hum-cdf2-10-009.jpg 5.26mb Oct 27, 2011 12:41:23 PM Public
a47-hum-cdf2-10-010.jpg 5.52mb Oct 27, 2011 12:41:43 PM Public
a47-hum-cdf2-10-011.jpg 5.08mb Oct 27, 2011 12:42:02 PM Public
a47-hum-cdf2-10-012.jpg 5.10mb Oct 27, 2011 12:42:24 PM Public
a47-hum-cdf2-10-013.jpg 4.91mb Oct 27, 2011 12:42:48 PM Public
a47-hum-cdf2-10-014.jpg 4.87mb Oct 27, 2011 12:43:10 PM Public
a47-hum-cdf2-10-015.jpg 4.45mb Oct 27, 2011 12:43:43 PM Public
a47-hum-cdf2-10-016.jpg 4.92mb Oct 27, 2011 12:44:06 PM Public
a47-hum-cdf2-10-017.jpg 4.89mb Oct 27, 2011 12:44:26 PM Public
a47-hum-cdf2-10-018.jpg 5.18mb Oct 27, 2011 12:44:46 PM Public
a47-hum-cdf2-10-019.jpg 4.72mb Oct 27, 2011 12:45:06 PM Public
a47-hum-cdf2-10-020.jpg 4.86mb Oct 27, 2011 12:45:24 PM Public
a47-hum-cdf2-10-021.jpg 4.92mb Oct 27, 2011 12:45:51 PM Public
a47-hum-cdf2-10-022.jpg 5.21mb Oct 27, 2011 12:46:11 PM Public
a47-hum-cdf2-10-023.jpg 5.41mb Oct 27, 2011 12:46:31 PM Public
a47-hum-cdf2-10-024.jpg 5.71mb Oct 27, 2011 12:46:51 PM Public
a47-hum-cdf2-10-025.jpg 5.78mb Oct 27, 2011 12:47:15 PM Public
a47-hum-cdf2-10-026.jpg 5.64mb Oct 27, 2011 12:47:40 PM Public
a47-hum-cdf2-10-027.jpg 5.65mb Oct 27, 2011 12:48:06 PM Public
a47-hum-cdf2-10-048.jpg 5.58mb Oct 27, 2011 12:48:31 PM Public
a47-hum-cdf2-10-049.jpg 5.52mb Oct 27, 2011 12:48:56 PM Public
a47-hum-cdf2-10-050.jpg 5.85mb Oct 27, 2011 12:49:25 PM Public
a47-hum-cdf2-10-051.jpg 5.51mb Oct 27, 2011 12:50:02 PM Public
a47-hum-cdf2-10-052.jpg 5.62mb Oct 27, 2011 12:50:36 PM Public
a47-hum-cdf2-10-053.jpg 5.57mb Oct 27, 2011 12:51:19 PM Public
a47-hum-cdf2-10-054.jpg 5.07mb Oct 27, 2011 12:52:00 PM Public
a47-hum-cdf2-10-055.jpg 4.86mb Oct 27, 2011 12:52:40 PM Public
a47-hum-cdf2-10-056.jpg 4.86mb Oct 27, 2011 12:53:14 PM Public
a47-hum-cdf2-10-057.jpg 4.79mb Oct 27, 2011 12:53:49 PM Public
a47-hum-cdf2-10-058.jpg 4.69mb Oct 27, 2011 12:54:28 PM Public
a47-hum-cdf2-10-059.jpg 4.86mb Oct 27, 2011 12:55:13 PM Public
a47-hum-cdf2-10-060.jpg 4.69mb Oct 27, 2011 12:56:02 PM Public
a47-hum-cdf2-10-061.jpg 4.46mb Oct 27, 2011 12:56:40 PM Public
a47-hum-cdf2-10-062.jpg 4.57mb Oct 27, 2011 12:57:19 PM Public
a47-hum-cdf2-10-063.jpg 4.93mb Oct 27, 2011 12:58:09 PM Public
a47-hum-cdf2-10-064.jpg 5.08mb Oct 27, 2011 12:59:05 PM Public
a47-hum-cdf2-10-065.jpg 5.32mb Oct 27, 2011 12:59:57 PM Public
a47-hum-cdf2-10-066.jpg 5.04mb Oct 27, 2011 1:00:30 PM Public
a47-hum-cdf2-10-067.jpg 5.45mb Oct 27, 2011 1:01:02 PM Public
a47-hum-cdf2-10-068.jpg 5.11mb Oct 27, 2011 1:01:34 PM Public
a47-hum-cdf2-10-069.jpg 4.97mb Oct 27, 2011 1:02:07 PM Public
a47-hum-cdf2-10-070.jpg 5.17mb Oct 27, 2011 1:02:40 PM Public
a47-hum-cdf2-10-071.jpg 5.71mb Oct 27, 2011 1:03:11 PM Public
a47-hum-cdf2-10-072.jpg 5.60mb Oct 27, 2011 1:03:44 PM Public
a47-hum-cdf2-10-073.jpg 4.77mb Oct 27, 2011 1:04:16 PM Public
a47-hum-cdf2-10-074.jpg 4.98mb Oct 27, 2011 1:04:49 PM Public
a47-hum-cdf2-10-075.jpg 4.90mb Oct 27, 2011 1:05:19 PM Public
a47-hum-cdf2-10-076.jpg 4.74mb Oct 27, 2011 1:05:51 PM Public
a47-hum-cdf2-10-077.jpg 4.73mb Oct 27, 2011 1:06:23 PM Public
a47-hum-cdf2-10-078.jpg 4.55mb Oct 27, 2011 1:06:57 PM Public
a47-hum-cdf2-10-079.jpg 4.34mb Oct 27, 2011 1:07:28 PM Public
a47-hum-cdf2-10-080.jpg 4.12mb Oct 27, 2011 1:08:00 PM Public
a47-hum-cdf2-10-081.jpg 4.29mb Oct 27, 2011 1:08:38 PM Public
a47-hum-cdf2-10-082.jpg 4.07mb Oct 27, 2011 1:09:17 PM Public
a47-hum-cdf2-10-083.jpg 5.40mb Oct 27, 2011 1:09:57 PM Public
a47-hum-cdf2-10-084.jpg 5.40mb Oct 27, 2011 1:10:36 PM Public
a47-hum-cdf2-10-085.jpg 5.51mb Oct 27, 2011 1:11:16 PM Public
a47-hum-cdf2-10-086.jpg 5.41mb Oct 27, 2011 1:11:50 PM Public
a47-hum-cdf2-10-087.jpg 5.37mb Oct 27, 2011 1:12:31 PM Public
a47-hum-cdf2-10-088.jpg 5.46mb Oct 27, 2011 1:13:03 PM Public
a47-hum-cdf2-10-089.jpg 5.37mb Oct 27, 2011 1:13:35 PM Public
a47-hum-cdf2-10-090.jpg 5.05mb Oct 27, 2011 1:14:06 PM Public
a47-hum-cdf2-10-091.jpg 4.79mb Oct 27, 2011 1:14:36 PM Public
a47-hum-cdf2-10-092.jpg 5.12mb Oct 27, 2011 1:15:07 PM Public
a47-hum-cdf2-10-093.jpg 5.20mb Oct 27, 2011 1:15:40 PM Public
a47-hum-cdf2-10-094.jpg 5.24mb Oct 27, 2011 1:16:14 PM Public
a47-hum-cdf2-10-095.jpg 5.19mb Oct 27, 2011 1:16:44 PM Public
a47-hum-cdf2-10-096.jpg 5.31mb Oct 27, 2011 1:17:19 PM Public
a47-hum-cdf2-10-097.jpg 5.36mb Oct 27, 2011 1:18:07 PM Public
a47-hum-cdf2-10-098.jpg 5.52mb Oct 27, 2011 1:19:05 PM Public
a47-hum-cdf2-10-099.jpg 5.13mb Oct 27, 2011 1:19:42 PM Public
a47-hum-cdf2-10-100.jpg 4.78mb Oct 27, 2011 1:20:15 PM Public
a47-hum-cdf2-10-101.jpg 4.73mb Oct 27, 2011 1:20:54 PM Public
a47-hum-cdf2-10-102.jpg 4.36mb Oct 27, 2011 1:21:25 PM Public
a47-hum-cdf2-10-103.jpg 4.07mb Oct 27, 2011 1:21:59 PM Public
a47-hum-cdf2-10-104.jpg 4.58mb Oct 27, 2011 1:22:34 PM Public
a47-hum-cdf2-10-105.jpg 4.71mb Oct 27, 2011 1:23:09 PM Public
a47-hum-cdf2-10-106.jpg 4.94mb Oct 27, 2011 1:23:53 PM Public
a47-hum-cdf2-10-107.jpg 5.25mb Oct 27, 2011 1:24:29 PM Public
a47-hum-cdf2-10-108.jpg 5.24mb Oct 27, 2011 1:25:03 PM Public
a47-hum-cdf2-10-109.jpg 5.64mb Oct 27, 2011 1:26:04 PM Public
a47-hum-cdf2-10-110.jpg 5.68mb Oct 27, 2011 1:26:39 PM Public
a47-hum-cdf2-10-111.jpg 5.24mb Oct 27, 2011 1:27:16 PM Public
a47-hum-cdf2-10-112.jpg 5.10mb Oct 27, 2011 1:27:46 PM Public
a47-hum-cdf2-10-113.jpg 5.40mb Oct 27, 2011 1:28:20 PM Public
a47-hum-cdf2-10-114.jpg 5.33mb Oct 27, 2011 1:28:51 PM Public
a47-hum-cdf2-10-115.jpg 4.98mb Oct 27, 2011 1:29:25 PM Public
a47-hum-cdf2-10-129.jpg 5.26mb Oct 27, 2011 1:29:57 PM Public
a47-hum-cdf2-10-130.jpg 5.30mb Oct 27, 2011 1:30:54 PM Public
a47-hum-cdf2-10-131.jpg 5.23mb Oct 27, 2011 1:31:34 PM Public
a47-hum-cdf2-10-132.jpg 5.20mb Oct 27, 2011 1:32:09 PM Public
a47-hum-cdf2-10-133.jpg 4.82mb Oct 27, 2011 1:33:40 PM Public
a47-hum-cdf2-10-134.jpg 5.13mb Oct 27, 2011 1:34:22 PM Public
a47-hum-cdf2-10-135.jpg 5.18mb Oct 27, 2011 1:35:00 PM Public
a47-hum-cdf2-10-136.jpg 4.82mb Oct 27, 2011 1:36:44 PM Public
a47-hum-cdf2-10-137.jpg 4.74mb Oct 27, 2011 1:37:08 PM Public
a47-hum-cdf2-10-138.jpg 5.02mb Oct 27, 2011 1:37:39 PM Public
a47-hum-cdf2-10-139.jpg 5.03mb Oct 27, 2011 1:38:04 PM Public
a47-hum-cdf2-10-140.jpg 4.89mb Oct 27, 2011 1:38:34 PM Public
a47-hum-cdf2-10-141.jpg 4.94mb Oct 27, 2011 1:40:16 PM Public
a47-hum-cdf2-10-142.jpg 4.86mb Oct 27, 2011 1:40:33 PM Public
a47-hum-cdf2-10-143.jpg 4.80mb Oct 27, 2011 1:40:55 PM Public
a47-hum-cdf2-10-144.jpg 4.83mb Oct 27, 2011 1:42:27 PM Public
a47-hum-cdf2-10-145.jpg 5.09mb Oct 27, 2011 1:42:47 PM Public
a47-hum-cdf2-10-146.jpg 5.02mb Oct 27, 2011 1:43:06 PM Public
a47-hum-cdf2-10-147.jpg 5.13mb Oct 27, 2011 1:43:25 PM Public
a47-hum-cdf2-10-148.jpg 5.19mb Oct 27, 2011 1:44:14 PM Public
a47-hum-cdf2-10-149.jpg 5.11mb Oct 27, 2011 1:44:32 PM Public
a47-hum-cdf2-10-150.jpg 5.24mb Oct 27, 2011 1:44:52 PM Public
a47-hum-cdf2-10-151.jpg 5.00mb Oct 27, 2011 1:45:10 PM Public
a47-hum-cdf2-10-152.jpg 4.57mb Oct 27, 2011 1:46:31 PM Public
a47-hum-cdf2-10-153.jpg 4.88mb Oct 27, 2011 1:46:45 PM Public
a47-hum-cdf2-10-154.jpg 4.49mb Oct 27, 2011 1:48:31 PM Public
a47-hum-cdf2-10-155.jpg 4.32mb Oct 27, 2011 1:48:45 PM Public
a47-hum-cdf2-10-156.jpg 5.07mb Oct 27, 2011 1:49:04 PM Public
a47-hum-cdf2-10-157.jpg 5.00mb Oct 27, 2011 1:49:22 PM Public
a47-hum-cdf2-10-158.jpg 4.51mb Oct 27, 2011 1:50:47 PM Public
a47-hum-cdf2-10-159.jpg 5.20mb Oct 27, 2011 1:52:13 PM Public
a47-hum-cdf2-10-160.jpg 4.72mb Oct 27, 2011 1:52:29 PM Public
a47-hum-cdf2-10-161.jpg 4.50mb Oct 27, 2011 1:53:55 PM Public
a47-hum-cdf2-10-162.jpg 4.74mb Oct 27, 2011 1:54:11 PM Public
a47-hum-cdf2-10-163.jpg 5.05mb Oct 27, 2011 1:55:20 PM Public
a47-hum-cdf2-10-164.jpg 8.47mb Oct 27, 2011 1:55:35 PM Public
a47-hum-cdf2-10-165.jpg 5.12mb Oct 27, 2011 1:55:55 PM Public
a47-hum-cdf2-10-166.jpg 5.09mb Oct 27, 2011 1:56:15 PM Public
a47-hum-cdf2-10-167.jpg 5.02mb Oct 27, 2011 1:57:57 PM Public
a47-hum-cdf2-10-168.jpg 5.20mb Oct 27, 2011 1:58:09 PM Public
a47-hum-cdf2-10-169.jpg 5.07mb Oct 27, 2011 1:58:35 PM Public
a47-hum-cdf2-10-170.jpg 5.14mb Oct 27, 2011 2:00:03 PM Public
a47-hum-cdf2-10-171.jpg 5.26mb Oct 27, 2011 2:00:18 PM Public
a47-hum-cdf2-10-172.jpg 5.05mb Oct 27, 2011 2:01:46 PM Public
a47-hum-cdf2-10-173.jpg 5.02mb Oct 27, 2011 2:02:02 PM Public
a47-hum-cdf2-10-174.jpg 4.94mb Oct 27, 2011 2:02:19 PM Public
a47-hum-cdf2-10-175.jpg 4.94mb Oct 27, 2011 2:03:50 PM Public
a47-hum-cdf2-10-176.jpg 4.71mb Oct 27, 2011 2:04:06 PM Public
a47-hum-cdf2-10-177.jpg 4.89mb Oct 27, 2011 2:04:24 PM Public
a47-hum-cdf2-10-178.jpg 4.60mb Oct 27, 2011 2:05:39 PM Public
a47-hum-cdf2-10-179.jpg 4.28mb Oct 27, 2011 2:05:56 PM Public
a47-hum-cdf2-10-180.jpg 4.64mb Oct 27, 2011 2:06:13 PM Public
a47-hum-cdf2-10-181.jpg 5.02mb Oct 27, 2011 2:07:28 PM Public
a47-hum-cdf2-10-182.jpg 5.33mb Oct 27, 2011 2:07:46 PM Public
a47-hum-cdf2-10-183.jpg 5.28mb Oct 27, 2011 2:08:04 PM Public
a47-hum-cdf2-10-184.jpg 5.06mb Oct 27, 2011 2:08:22 PM Public
a47-hum-cdf2-10-185.jpg 4.77mb Oct 27, 2011 2:09:20 PM Public
a47-hum-cdf2-10-186.jpg 4.50mb Oct 27, 2011 2:09:53 PM Public
flightline-10.jpg 1.07mb Nov 3, 2011 12:20:51 PM Public
Arizona State University The Andrew W. Mellon Foundation National Science Foundation National Endowment for the Humanities Society for American Archaeology Archaeological Institute of America